GFSFLT2_925_rhum_000.txt.gz
RH
74 78 80 74 71 72 56 57 60 56 56 54 63 78 77 80 78 76 73 71 69 66 64 63 66 70 76
82 84 75 78 67 59 61 61 62 60 55 36 81 74 80 82 79 76 76 75 73 70 64 62 63 65 74
84 82 78 72 69 68 67 69 67 59 43 57 66 76 77 78 78 79 79 77 76 69 69 66 67 68 70
95 83 77 75 73 66 69 71 67 55 61 54 58 65 75 77 76 77 78 82 77 71 68 71 74 73 75
93 83 77 78 73 68 66 63 56 63 66 57 56 56 57 62 66 70 82 84 77 72 71 70 74 72 72
89 82 74 67 67 69 67 56 40 75 68 54 55 58 57 58 63 83 89 85 76 75 74 72 72 70 70
90 81 68 65 70 72 65 51 45 52 65 56 55 63 56 56 65 78 92 84 76 78 76 74 73 72 72
84 76 62 63 66 61 56 52 64 60 74 69 49 50 55 56 60 75 84 78 79 79 76 76 77 79 79
67 56 49 48 43 40 74 70 50 45 72 71 54 54 55 51 53 66 72 70 73 74 79 78 81 83 80
70 70 52 38 42 62 68 69 63 43 66 71 55 62 58 48 52 50 49 49 58 66 70 81 86 84 75
80 76 78 82 79 78 60 79 75 67 66 78 83 75 68 60 52 49 47 46 46 53 59 63 69 82 82
81 77 76 79 91 91 61 78 92 87 82 94 94 90 86 76 53 41 46 48 49 49 53 56 62 68 76
67 71 78 88 95 74 72 71 71 90 96 97 99 93 96 89 72 63 57 49 49 51 49 54 58 62 66
68 75 88 90 86 93 90 86 79 76 96 75 98 100 98 84 75 66 59 54 48 50 51 55 57 57 61
68 74 68 79 89 95 83 79 73 68 73 83 95 98 95 97 85 70 61 51 50 53 56 56 58 58 59
70 64 70 81 86 86 81 78 72 71 75 82 87 82 69 62 71 70 57 50 53 54 58 59 58 58 60
73 78 87 88 86 78 79 76 73 75 81 90 89 83 74 66 46 69 70 58 56 60 57 59 63 64 65

GFSFLT2_925_rhum_003.txt.gz
RH
72 66 66 72 71 67 62 64 62 63 62 56 54 51 46 56 78 80 79 75 73 71 69 66 63 60 61
81 83 80 77 74 70 69 66 62 63 62 56 52 45 34 75 82 81 78 77 78 75 71 68 64 63 65
86 88 83 80 74 70 67 64 63 62 60 57 45 39 69 77 77 79 80 81 79 76 72 70 66 68 70
95 88 81 82 76 74 73 68 70 66 57 53 58 61 65 71 77 80 81 81 82 78 74 70 69 70 76
96 93 89 88 84 79 74 71 74 69 58 60 58 60 59 62 72 70 75 79 84 79 75 71 71 68 69
97 96 94 90 85 76 74 68 70 51 60 61 52 54 58 57 60 63 75 86 86 80 76 75 74 73 70
96 93 92 89 82 76 72 62 52 66 58 58 50 55 60 59 58 64 72 83 87 79 77 76 74 75 74
98 94 88 81 79 75 68 54 52 55 54 80 53 55 53 54 59 61 72 85 80 78 80 76 76 78 78
100 97 85 74 72 63 63 67 62 49 67 72 59 54 57 57 53 58 74 74 69 67 72 75 79 81 83
94 85 79 82 69 48 51 74 65 53 62 71 57 64 73 48 50 54 52 51 51 56 61 65 72 82 85
98 93 87 80 71 60 46 44 72 71 80 70 85 82 71 66 60 53 52 50 47 49 51 57 66 67 72
96 95 91 89 73 56 57 63 74 76 78 76 82 89 87 84 74 48 54 54 53 50 48 52 57 58 64
94 92 92 84 89 84 59 80 81 77 88 90 88 95 90 87 90 82 72 60 59 54 50 51 52 54 58
90 94 99 96 98 84 94 97 90 90 73 80 83 92 94 95 97 90 81 72 54 55 52 53 56 58 58
92 94 98 99 100 93 95 92 76 74 89 92 90 94 95 95 99 93 88 74 60 50 53 56 57 58 60
85 84 93 97 97 97 94 81 76 73 76 81 88 88 78 65 76 95 85 67 57 54 57 59 62 60 59
84 94 98 98 93 92 86 80 76 73 79 89 92 89 97 92 57 80 85 70 66 59 61 64 64 67 68

GFSFLT2_925_rhum_006.txt.gz
RH
76 74 70 68 74 75 71 72 68 62 64 69 60 59 57 60 74 74 78 78 76 75 75 72 70 66 63
78 82 85 78 83 84 84 72 65 64 70 72 79 84 80 67 72 77 81 80 78 79 77 74 71 67 67
88 84 93 92 88 91 90 74 71 67 74 84 81 78 82 60 75 79 78 81 80 81 79 76 71 69 64
91 93 95 92 89 94 90 84 75 70 71 69 66 70 76 65 73 75 78 82 82 82 80 76 74 70 67
93 98 98 97 95 94 94 90 88 73 66 63 60 57 48 60 70 76 80 78 81 82 79 76 74 71 72
95 96 96 93 96 98 95 95 92 74 67 63 60 50 48 50 50 63 66 68 77 82 81 77 74 73 73
97 96 91 94 98 99 97 90 82 70 68 59 50 51 46 49 63 65 66 70 76 83 82 77 75 75 74
100 98 98 93 96 95 96 92 80 77 64 70 53 53 52 55 61 62 64 67 74 84 80 78 77 77 77
100 100 100 99 100 99 97 90 83 72 61 53 58 55 55 54 53 57 61 70 78 78 73 70 72 76 78
100 100 99 100 100 98 93 88 96 91 70 59 61 58 69 54 50 54 58 64 59 58 58 60 62 65 70
100 100 100 100 98 97 96 90 88 80 74 58 74 75 72 72 59 48 51 51 50 51 52 54 57 62 70
100 99 99 97 96 94 88 82 59 44 76 61 73 78 84 91 86 58 52 46 45 51 51 51 55 58 62
98 97 95 94 95 97 96 86 74 85 89 71 60 71 77 85 91 88 88 66 62 65 54 52 51 51 52
99 100 99 100 99 93 96 97 96 96 91 72 71 73 92 92 92 98 95 94 62 52 50 58 54 54 56
100 100 99 98 100 98 98 98 91 99 99 88 86 83 87 89 98 95 96 95 76 66 69 59 57 59 58
98 98 98 97 97 98 97 93 83 85 88 96 100 93 82 64 75 95 97 94 74 62 59 66 64 63 63
98 98 98 98 97 97 96 82 80 77 79 87 90 93 100 100 58 78 92 86 86 85 75 67 68 69 71

GFSFLT2_925_rhum_009.txt.gz
RH
78 74 75 74 72 71 74 71 69 74 75 76 79 82 81 76 72 72 84 81 77 75 74 76 74 72 70
80 79 82 83 81 78 80 81 78 80 84 85 86 92 96 88 80 83 83 80 79 77 78 78 77 74 71
90 85 87 92 95 93 91 88 89 91 96 86 94 99 99 98 89 87 81 82 83 81 80 80 77 74 71
91 92 88 100 97 95 100 100 99 100 100 100 99 100 100 94 91 82 82 83 82 82 83 80 80 76 73
86 85 89 99 98 92 97 98 100 100 100 100 100 98 96 89 90 88 80 81 81 83 84 82 78 76 75
86 89 84 98 98 98 97 99 98 100 99 100 96 100 90 91 88 78 78 82 82 80 83 82 79 77 74
96 90 91 92 95 98 97 93 93 96 98 96 99 97 86 82 63 68 69 73 72 76 81 82 80 77 74
94 91 93 98 100 97 92 97 100 99 100 95 99 95 91 80 64 67 69 70 72 75 79 82 79 77 76
96 97 89 88 100 100 100 98 96 96 96 87 94 93 78 64 50 70 69 68 70 71 80 80 79 77 76
98 99 99 99 98 100 99 98 98 97 97 95 96 91 87 59 61 57 62 65 68 80 78 70 67 66 67
99 100 100 100 98 99 100 99 97 99 98 94 97 94 70 74 60 56 57 63 68 60 62 65 62 60 60
100 100 100 100 100 100 100 100 96 92 99 96 95 86 85 83 70 61 55 51 51 49 45 46 61 64 63
98 100 99 99 99 99 100 100 98 99 99 95 48 65 54 75 85 78 66 56 52 56 54 52 49 50 51
100 100 100 99 98 98 98 99 97 98 98 81 56 50 70 70 74 90 83 83 70 67 58 49 49 54 55
99 99 99 98 98 98 97 97 97 96 99 96 84 75 75 74 93 92 93 95 73 66 71 69 58 54 54
98 98 98 98 97 98 98 97 96 95 99 100 100 97 78 58 84 98 94 91 75 70 76 84 73 61 62
98 98 98 98 97 97 97 97 94 89 97 100 97 90 99 87 49 92 89 82 88 93 84 82 76 70 69

GFSFLT2_925_rhum_012.txt.gz
RH
76 77 80 87 83 77 76 74 76 72 72 70 71 70 75 81 81 93 92 94 94 93 86 80 71 73 73
79 81 81 84 89 89 89 81 84 82 83 73 79 75 85 85 100 97 93 98 98 96 83 75 72 75 73
85 81 81 84 88 92 98 95 95 91 95 83 84 86 91 97 100 98 99 97 97 90 81 77 77 76 74
85 81 79 79 86 96 97 100 99 98 99 96 97 100 100 100 100 100 100 100 99 89 83 80 80 78 75
88 84 85 84 90 86 95 93 99 100 100 100 100 100 100 100 100 100 100 99 99 94 86 81 81 80 77
91 90 85 89 88 85 93 94 97 95 100 98 100 100 99 100 98 100 100 99 98 91 82 80 82 81 78
90 85 85 83 87 90 86 96 92 90 100 97 100 100 100 100 100 100 98 100 94 89 84 82 82 80 78
89 88 92 95 96 97 98 96 99 100 100 98 100 98 100 100 100 100 99 100 99 92 83 82 81 80 78
90 94 96 94 99 100 96 98 98 99 100 94 100 100 100 100 100 100 100 99 94 79 78 79 81 80 77
94 94 97 99 98 100 99 98 98 98 97 94 99 96 97 99 99 99 100 98 86 76 76 77 79 79 78
98 98 98 100 100 100 100 100 98 100 98 96 98 98 97 96 98 98 98 89 74 72 74 80 78 76 71
97 97 98 100 99 100 100 100 100 96 100 98 97 97 96 96 95 95 76 64 69 77 79 73 72 69 69
96 96 99 100 100 99 100 99 98 99 99 99 96 98 97 95 88 80 68 63 60 58 54 50 46 56 68
98 99 100 98 98 98 98 98 97 98 98 97 98 81 83 71 72 87 63 64 62 58 55 57 56 53 51
98 99 98 98 97 98 98 97 96 96 96 96 82 60 54 54 87 70 76 76 69 76 75 67 52 47 50
98 99 98 97 97 97 97 97 95 96 97 100 98 80 58 65 85 88 92 86 73 71 76 84 74 56 57
98 98 98 97 98 97 98 97 96 98 100 100 96 89 88 74 53 96 77 80 81 87 82 87 78 66 63

GFSFLT2_925_rhum_015.txt.gz
RH
74 76 79 81 81 83 84 92 89 84 82 82 77 83 80 77 81 77 85 83 78 80 95 100 99 96 91
79 78 79 80 84 84 84 88 99 95 87 85 83 84 84 87 91 86 83 87 87 86 99 98 98 99 96
80 82 81 82 86 85 84 78 76 92 94 91 94 94 99 95 97 100 89 96 93 98 100 100 100 97 83
80 78 77 77 82 87 89 83 89 84 79 85 93 100 99 96 96 100 100 100 100 100 100 98 99 97 92
72 75 75 77 80 84 86 80 78 89 92 92 98 100 100 98 100 100 100 100 99 100 100 99 100 96 88
75 74 74 76 82 86 85 86 89 75 92 98 97 100 100 100 99 99 100 100 100 100 100 100 99 96 90
76 75 80 78 84 87 87 86 85 87 99 96 98 100 100 99 100 100 99 100 100 100 100 100 100 96 91
74 81 88 89 92 92 91 91 90 95 99 97 92 98 100 100 100 100 99 99 99 99 100 100 100 100 98
85 91 86 91 96 96 95 89 90 92 99 97 99 100 100 100 100 100 100 100 100 100 100 100 100 99 93
91 92 91 93 98 100 98 96 96 96 97 99 99 96 98 100 100 100 100 100 100 100 100 100 100 95 86
91 91 90 93 99 99 100 100 97 97 94 100 99 100 97 97 98 100 100 100 100 100 100 100 91 89 89
96 94 90 97 98 100 100 100 100 100 99 99 96 96 97 97 96 98 99 100 99 100 100 92 87 91 81
94 91 96 99 100 99 98 98 98 98 99 99 99 98 98 96 95 96 97 98 98 96 86 89 87 79 82
97 97 99 99 99 98 98 97 97 97 97 97 98 98 97 97 96 96 97 93 97 96 89 80 74 71 72
98 96 94 97 98 98 98 97 97 96 96 97 96 87 83 88 93 92 92 90 85 69 63 63 58 52 51
97 96 96 97 98 97 98 97 96 96 96 97 95 83 59 72 66 87 76 79 79 70 67 71 67 56 52
98 97 97 98 98 97 97 97 96 96 97 95 86 79 76 76 71 72 75 79 80 87 75 73 73 56 53

GFSFLT2_925_rhum_018.txt.gz
RH
70 68 48 55 72 83 86 86 83 80 75 78 81 95 96 94 96 96 94 99 95 94 89 88 83 90 95
71 70 63 70 73 71 75 76 79 87 85 77 79 74 88 96 97 96 99 100 100 99 94 92 87 91 94
76 70 73 75 79 74 72 74 80 86 88 90 86 75 75 84 94 98 100 99 100 100 95 96 92 95 94
78 74 70 71 77 78 77 76 78 78 83 82 84 82 78 77 89 95 98 99 100 100 90 98 97 98 100
78 79 72 68 71 69 74 76 76 77 81 80 79 87 94 90 94 94 96 99 100 99 99 98 100 100 100
73 79 70 68 71 71 77 83 87 74 80 82 79 88 94 98 99 99 98 97 99 93 99 100 100 100 99
74 76 83 84 77 78 94 93 89 80 78 86 81 86 91 94 98 89 83 97 98 96 100 100 100 100 99
81 89 97 97 98 97 87 92 96 90 87 96 82 87 91 86 88 91 94 98 92 100 100 100 100 100 99
79 79 82 87 81 91 96 96 95 95 95 93 88 88 99 98 96 90 92 98 100 100 100 100 100 99 100
94 86 86 82 82 91 100 98 97 96 88 97 96 99 99 98 99 99 99 100 100 100 100 100 100 100 100
84 87 85 89 96 99 100 100 98 96 96 100 96 99 97 95 99 100 100 100 100 100 100 100 100 100 100
89 89 86 91 92 94 98 100 99 98 97 99 98 99 97 97 97 98 100 100 100 100 100 100 100 99 100
91 89 88 92 94 94 99 98 98 97 96 99 99 98 98 97 96 97 98 99 100 99 100 100 100 100 100
94 94 91 96 91 95 98 98 97 96 96 97 97 98 97 97 97 96 98 96 99 100 100 100 100 100 98
94 92 89 97 92 98 98 98 97 97 96 97 96 97 97 97 96 97 97 97 98 98 99 97 98 97 96
94 93 94 96 96 98 98 97 96 96 96 96 96 92 89 95 97 96 96 96 96 97 94 83 81 71 65
95 95 97 96 97 97 97 97 96 96 96 93 92 91 84 91 89 84 84 92 88 77 66 58 62 54 45

GFSFLT2_925_rhum_021.txt.gz
RH
58 55 71 67 63 62 64 66 71 67 58 75 81 84 86 89 90 90 94 98 100 100 100 100 98 98 91
61 88 63 62 68 72 72 69 71 71 70 75 76 71 82 88 91 89 86 92 99 99 97 96 100 94 100
71 64 63 62 65 64 66 71 71 74 71 76 76 79 78 74 82 89 85 80 88 97 95 97 96 93 95
75 68 62 62 66 65 63 66 69 70 69 71 73 75 77 78 84 84 78 87 89 93 95 96 97 99 98
70 69 71 70 67 65 68 67 69 70 68 70 73 77 86 81 76 89 94 94 93 89 93 97 100 100 98
83 76 69 64 67 72 76 82 88 73 78 83 70 71 72 74 78 83 86 96 99 97 87 84 97 100 100
81 87 87 76 79 95 92 90 95 96 90 77 78 84 81 80 77 77 85 95 92 91 93 95 99 97 97
73 70 72 83 90 96 99 95 88 87 84 96 85 89 88 87 87 82 91 91 82 90 98 98 95 97 97
71 75 79 77 76 90 95 93 88 77 75 96 94 93 86 96 93 88 89 83 82 85 84 94 100 100 100
78 78 79 83 78 92 99 97 94 91 80 98 90 89 98 100 99 94 86 78 81 89 99 100 100 100 100
80 83 81 82 80 92 99 100 97 92 82 96 96 96 98 97 98 88 94 95 100 100 100 100 100 95 100
84 83 81 82 87 92 93 99 99 99 99 98 95 90 95 97 96 99 100 100 100 100 100 100 100 100 100
86 84 83 88 93 93 91 98 99 98 98 97 98 97 97 97 95 96 99 99 100 100 100 100 100 100 100
92 91 91 90 88 88 97 96 97 98 97 96 97 98 96 98 97 94 98 98 100 100 100 100 100 100 100
92 91 90 90 90 97 97 97 94 93 94 98 97 98 98 98 94 97 97 97 99 99 99 99 100 100 99
93 93 94 94 95 96 98 96 94 93 93 96 97 96 96 97 98 96 97 97 98 99 99 94 97 99 98
95 95 95 96 96 96 96 96 93 91 92 96 92 87 94 92 96 98 96 98 98 97 98 96 94 98 97

GFSFLT2_925_rhum_024.txt.gz
RH
52 52 48 49 50 44 45 47 50 49 54 59 64 65 74 78 78 77 90 93 91 91 92 96 97 98 80
59 53 54 50 52 50 48 48 49 49 51 55 60 63 66 73 77 84 83 73 82 88 84 94 100 99 98
61 60 58 54 52 52 53 53 51 49 48 50 54 58 64 68 74 77 82 86 89 83 75 87 85 96 98
64 64 62 61 57 57 56 54 53 55 56 57 62 65 66 67 72 74 83 84 86 92 86 87 86 90 90
71 74 61 55 57 58 60 60 59 60 66 65 64 68 69 70 71 63 69 72 85 90 99 92 93 94 91
80 71 56 59 64 61 62 68 76 63 62 69 75 76 72 70 66 71 72 75 77 82 84 85 96 93 85
64 62 67 66 67 73 76 86 94 81 80 79 67 72 74 79 81 78 79 82 86 86 87 92 92 88 90
60 65 79 85 90 94 94 89 82 78 73 95 78 76 73 75 78 84 88 92 92 92 91 87 83 82 94
66 66 64 66 72 79 91 91 86 74 71 86 80 86 97 92 78 73 95 95 97 99 99 95 89 87 91
69 67 70 72 71 77 98 95 92 88 68 92 86 82 86 66 87 96 93 87 98 98 97 98 99 100 100
71 74 74 74 75 82 94 98 94 92 79 86 93 87 93 87 73 76 86 90 90 86 99 99 100 99 100
78 77 77 80 82 85 88 92 97 98 96 100 97 96 91 87 84 74 93 97 100 100 100 100 100 100 99
84 83 82 84 89 92 94 93 98 99 99 99 98 96 96 92 89 88 99 99 100 100 100 100 100 100 100
92 91 89 90 93 94 96 95 97 96 98 96 96 98 95 95 95 97 99 99 99 100 100 100 100 100 100
93 92 92 93 93 96 97 97 94 93 92 97 97 97 98 98 94 98 97 99 100 100 99 99 100 100 100
94 94 94 94 95 96 97 96 93 92 92 95 93 95 96 96 98 96 97 98 99 100 99 95 98 100 100
95 95 95 96 96 95 92 84 80 80 83 90 89 94 93 92 96 98 96 98 98 97 99 89 96 100 99

GFSFLT2_925_rhum_030.txt.gz
RH
52 53 60 60 58 56 56 56 56 54 54 52 46 42 47 49 52 49 46 50 54 56 54 65 66 74 81
65 67 64 64 62 61 60 63 65 61 49 47 46 48 53 55 48 48 50 59 58 59 58 59 59 60 75
72 70 71 64 64 66 87 67 57 53 48 50 52 51 51 52 53 57 58 56 61 68 75 75 69 76 72
84 90 69 72 91 85 62 58 58 58 56 58 58 58 59 60 65 69 68 62 63 64 74 75 82 73 81
77 72 92 62 65 64 63 61 60 64 67 69 69 69 69 68 66 68 67 70 68 66 65 78 96 81 76
95 77 59 60 73 66 65 71 84 73 76 82 74 73 75 73 73 67 90 69 97 84 74 65 78 70 81
68 64 65 78 69 82 91 95 92 83 79 82 75 76 75 79 64 69 72 73 82 74 82 80 84 82 79
60 64 74 79 80 82 85 85 84 80 74 89 78 84 72 73 71 73 70 74 68 71 74 66 71 89 87
75 71 62 63 65 74 92 93 87 77 75 79 78 85 81 82 79 74 83 98 98 98 97 95 90 98 77
67 66 70 75 73 82 95 94 92 90 68 84 89 87 90 72 77 83 71 78 76 71 76 95 100 100 97
69 77 80 80 84 90 98 98 94 92 82 90 94 93 95 93 86 79 97 84 80 81 84 95 93 95 100
85 86 87 93 94 96 98 98 99 98 97 99 96 97 96 93 86 70 78 83 96 98 100 99 99 98 98
90 90 94 97 98 98 96 95 99 97 88 86 96 98 98 95 94 89 91 86 98 99 100 100 100 100 100
94 95 96 94 95 97 97 96 95 90 94 96 97 98 97 96 96 94 95 97 99 100 100 100 100 100 100
95 94 92 91 91 92 97 95 95 94 92 91 95 97 92 98 96 97 99 99 100 100 99 98 100 100 100
95 95 95 94 94 93 96 96 95 93 95 94 96 91 96 91 98 98 99 99 100 100 100 96 98 100 100
97 96 96 95 92 95 95 94 91 95 95 96 96 94 94 95 96 98 98 99 99 98 99 98 98 100 100

GFSFLT2_925_rhum_033.txt.gz
RH
54 55 60 65 61 64 68 64 62 61 63 72 66 51 50 48 50 51 48 58 65 61 52 63 66 66 64
63 74 70 65 67 77 66 77 75 72 63 55 51 49 51 51 53 57 52 50 49 49 50 45 56 71 65
80 65 66 89 71 73 86 64 58 56 54 51 52 53 55 57 57 57 58 61 71 71 71 72 67 62 67
73 93 70 72 91 57 55 58 64 62 60 59 60 61 60 60 60 61 64 64 63 63 64 63 62 60 61
80 76 93 64 62 62 65 68 69 66 67 71 80 81 74 68 66 65 66 68 68 69 69 71 70 65 71
96 77 68 68 69 67 74 91 89 72 72 75 72 72 73 73 72 68 71 78 85 61 93 70 75 81 76
73 76 77 71 79 96 93 90 89 82 80 81 75 75 73 78 71 67 67 63 64 71 75 80 82 76 73
68 73 88 89 74 79 96 96 91 80 73 91 80 80 74 74 73 74 73 73 77 86 80 80 80 70 66
81 71 64 66 75 93 93 92 86 74 72 84 85 86 84 84 81 77 76 78 86 98 98 96 99 93 83
68 68 73 79 82 93 98 94 92 90 68 88 89 91 92 71 73 76 72 76 74 73 72 78 79 74 79
75 82 88 92 90 96 98 98 94 92 84 95 94 95 93 93 85 85 85 86 88 90 81 79 80 81 89
88 86 87 93 95 97 99 98 99 98 98 99 96 97 94 90 87 72 80 91 97 99 98 98 96 91 93
90 89 93 96 98 98 97 95 94 96 97 97 99 97 98 94 93 89 94 87 98 99 100 100 100 100 98
94 94 96 96 96 97 97 95 97 87 85 95 98 98 96 98 97 93 94 97 97 100 100 100 100 100 98
95 95 93 94 93 94 97 96 94 94 90 91 94 91 97 99 95 95 97 98 100 100 100 98 100 100 100
95 95 95 94 94 90 94 94 95 93 94 92 96 89 88 88 98 98 98 99 100 100 100 96 97 100 100
97 96 96 95 91 94 93 92 90 95 94 93 96 96 94 95 81 99 98 99 99 98 99 98 98 100 100

GFSFLT2_925_rhum_036.txt.gz
RH
60 62 69 71 68 67 68 69 72 67 68 63 55 54 54 55 59 59 60 53 51 52 57 59 65 70 72
81 70 62 60 64 78 75 82 73 68 53 53 51 52 52 53 53 56 61 57 57 58 54 52 52 55 53
67 65 66 83 69 82 82 59 57 55 54 56 58 58 60 60 58 58 66 69 69 69 68 65 66 68 69
81 91 79 70 91 62 59 61 61 62 63 66 66 62 61 62 63 65 72 75 68 65 62 58 54 68 67
74 75 93 63 65 68 69 69 70 81 89 70 68 71 71 68 67 65 65 66 64 66 68 73 73 72 64
94 74 72 71 72 72 84 93 84 67 70 84 76 74 74 74 72 70 68 70 73 83 84 88 82 90 79
77 75 74 77 97 95 88 90 88 81 84 85 77 78 76 75 72 71 70 69 71 76 75 80 82 78 76
66 78 94 83 76 92 98 96 89 77 72 92 80 82 79 79 78 77 76 76 75 75 76 80 76 77 76
88 72 68 72 84 97 92 92 85 73 72 79 81 84 84 84 82 78 76 77 75 81 88 93 94 93 86
72 74 78 82 82 92 98 94 91 88 68 87 88 90 92 72 72 75 79 79 75 76 75 73 72 91 100
82 84 83 84 86 94 98 98 94 91 82 94 93 90 93 91 78 76 76 78 86 94 92 86 74 73 99
88 84 86 92 94 97 98 98 98 97 96 99 96 96 94 90 87 72 78 86 97 98 99 99 97 84 76
89 89 92 96 98 98 97 95 95 95 97 97 99 98 97 94 93 87 92 87 95 99 99 99 98 99 90
94 94 94 93 94 93 96 96 96 87 84 86 98 99 96 96 96 93 90 96 97 99 100 100 100 100 98
95 95 93 93 93 92 96 95 93 91 90 86 90 94 96 98 95 95 96 96 100 100 100 100 100 100 100
96 96 95 95 95 92 94 94 94 91 92 94 96 92 81 75 98 97 98 98 99 100 100 96 97 100 100
98 97 96 96 92 93 93 93 90 93 91 97 97 95 92 92 73 98 98 98 99 98 99 97 96 99 100

GFSFLT2_925_rhum_039.txt.gz
RH
67 70 68 62 62 63 64 67 70 70 71 65 55 56 55 54 60 62 62 68 69 64 72 68 67 69 67
84 69 65 66 70 74 85 94 89 72 59 54 55 55 56 59 67 78 71 64 60 62 62 62 64 67 67
73 73 75 82 82 94 84 61 58 56 57 58 59 61 62 66 67 72 81 76 76 75 75 72 70 69 68
81 82 83 93 76 65 60 62 65 67 70 70 69 69 64 61 62 62 64 66 66 67 70 72 76 76 80
93 88 72 61 66 67 70 72 86 81 71 71 71 70 70 73 71 70 70 70 68 67 69 71 74 74 70
91 77 70 70 71 77 95 84 85 71 73 90 82 78 77 76 74 74 73 71 73 81 86 79 81 81 77
76 75 73 79 98 94 89 90 87 81 85 88 77 77 74 73 72 74 76 78 76 81 84 84 80 81 81
68 84 98 79 75 93 99 97 90 78 72 91 78 78 76 77 76 75 74 75 80 82 81 75 79 81 78
94 73 71 76 85 98 92 93 85 74 73 80 82 85 84 84 82 81 76 75 76 83 74 74 77 82 83
75 78 82 84 81 90 98 94 91 88 66 88 89 89 90 70 68 75 82 79 77 78 79 78 73 74 90
84 86 85 84 87 93 97 99 95 92 83 95 93 90 92 91 80 76 77 81 89 91 88 92 90 92 99
90 87 88 92 94 99 100 100 100 98 96 100 96 96 94 90 86 76 80 90 98 98 98 99 98 98 91
91 90 94 98 99 98 96 95 96 95 94 96 100 98 97 94 93 88 94 87 90 98 98 98 98 98 99
95 95 96 95 96 96 97 96 96 86 84 87 98 99 96 94 97 93 90 96 98 100 100 100 99 100 100
96 96 95 94 94 94 97 96 94 90 88 88 90 95 92 95 95 92 96 98 99 100 100 100 100 100 100
97 97 96 96 95 93 96 96 94 90 94 92 95 92 80 72 97 97 97 98 99 100 100 98 99 100 100
99 98 97 97 93 94 94 93 91 91 91 96 96 95 93 92 73 88 98 98 99 98 99 99 98 100 99

GFSFLT2_925_rhum_045.txt.gz
RH
66 67 64 61 62 67 72 70 69 65 65 66 67 67 66 67 72 74 74 78 76 73 73 70 71 71 76
74 67 61 66 72 81 65 58 58 59 61 65 65 66 68 72 77 74 72 74 72 74 73 71 75 71 70
68 69 74 83 67 62 60 60 61 62 64 66 69 72 73 72 70 69 70 72 79 77 74 75 74 72 74
79 90 70 65 69 63 61 64 66 71 74 72 70 69 69 70 72 73 73 73 72 71 70 72 70 68 68
84 71 73 62 62 66 70 77 75 69 69 67 65 71 74 72 71 72 74 76 78 81 83 82 79 76 73
81 69 64 64 70 83 91 79 78 65 67 77 75 74 70 69 69 73 75 75 77 78 80 85 92 87 87
70 69 74 77 98 94 87 87 88 82 82 77 71 69 67 68 70 75 78 79 79 82 82 84 86 82 85
74 82 95 85 78 86 95 95 87 76 70 81 72 72 72 72 72 76 78 80 81 82 84 83 80 82 77
90 81 74 79 84 95 91 90 82 74 73 74 73 77 81 78 76 71 71 74 88 94 97 96 95 88 86
71 70 76 79 85 85 93 94 89 85 62 86 86 84 83 63 66 76 75 76 85 92 98 99 99 99 99
77 78 82 81 83 89 97 98 95 91 81 93 91 90 90 86 76 75 77 82 91 91 91 96 99 100 99
84 86 88 92 96 99 100 100 100 100 99 100 96 96 93 88 84 75 81 85 88 90 96 96 98 99 99
89 91 94 98 100 100 99 99 99 98 95 90 98 97 98 94 93 88 86 85 92 96 100 100 100 100 99
94 95 97 97 98 98 99 98 97 89 86 88 97 99 96 93 96 93 88 96 96 99 100 100 100 99 100
96 96 95 95 95 96 98 96 95 91 90 88 93 95 95 94 94 88 97 97 99 99 100 98 99 98 100
98 97 96 97 96 94 96 96 94 91 91 92 93 92 81 69 78 98 93 97 98 100 100 98 97 99 99
99 98 97 96 94 94 94 94 90 89 91 91 95 95 93 89 72 74 99 98 98 97 99 98 98 100 99

GFSFLT2_925_rhum_048.txt.gz
RH
49 50 54 50 50 54 58 59 53 47 52 60 63 67 69 72 70 70 71 72 76 78 79 76 70 72 71
60 60 52 54 60 60 49 47 51 51 55 62 65 66 69 72 71 73 72 75 75 81 79 73 75 73 75
64 60 58 70 59 54 55 51 52 54 56 60 63 66 69 68 67 68 69 70 70 71 70 73 74 76 74
64 71 80 58 58 52 53 56 58 62 62 63 61 62 61 62 66 70 72 73 73 73 73 73 75 75 76
89 72 67 54 50 56 62 65 70 63 63 60 57 65 68 64 64 65 66 69 72 77 80 82 86 87 79
81 68 52 53 60 66 83 80 73 63 64 70 66 66 63 62 61 64 69 72 76 78 80 82 82 81 82
61 57 62 64 82 95 82 84 84 78 76 72 65 63 62 62 63 69 72 76 80 80 82 86 84 83 83
60 65 77 92 86 79 88 88 83 72 67 76 68 67 66 68 70 74 76 78 76 76 80 90 96 96 95
73 82 74 71 76 90 91 86 80 72 72 69 66 74 79 78 72 63 65 70 78 77 79 83 92 98 99
68 61 64 67 73 76 90 94 88 84 62 80 86 82 82 63 66 76 75 73 76 78 78 83 88 99 100
63 66 70 72 75 82 91 98 94 91 80 91 91 90 91 88 76 76 79 79 81 83 81 82 84 95 100
74 79 81 87 91 94 98 99 100 100 99 100 96 96 93 88 82 73 77 84 85 88 93 98 98 99 99
86 87 89 94 96 96 94 97 98 99 99 100 100 98 97 94 91 88 84 85 93 92 97 100 100 100 99
92 92 92 93 94 95 96 94 95 91 88 91 92 98 96 93 94 92 90 95 96 99 100 100 100 100 99
95 94 92 92 93 94 95 95 93 90 89 89 90 94 97 98 96 90 89 94 98 99 99 98 99 100 99
96 95 95 94 94 93 94 94 93 88 87 88 89 90 82 74 70 86 94 92 96 99 99 98 96 99 99
96 97 96 95 93 94 93 92 88 88 86 86 91 94 93 89 70 72 98 97 98 95 99 98 98 99 99

GFSFLT2_925_rhum_051.txt.gz
RH
51 53 54 55 53 52 60 58 58 49 51 56 58 61 62 67 69 71 78 76 76 76 82 77 83 79 76
56 59 58 53 55 64 65 51 51 51 51 56 60 62 63 65 66 66 68 70 70 70 79 80 74 78 72
59 56 58 65 81 61 56 53 52 53 55 57 61 63 64 64 63 63 63 65 67 68 68 70 76 73 78
66 72 78 74 61 56 54 57 60 62 67 62 62 61 59 58 64 66 68 68 68 69 70 73 75 77 79
84 94 74 62 56 56 61 67 71 79 67 68 62 66 69 65 64 63 64 66 67 69 73 73 74 77 82
94 79 67 57 60 68 78 90 88 69 70 76 73 72 68 66 63 64 67 70 73 74 77 79 84 84 82
65 59 60 62 74 88 91 88 85 81 79 79 73 71 68 67 66 66 71 77 80 79 80 84 84 85 84
57 60 68 86 99 92 80 87 86 77 72 82 73 73 72 72 72 75 77 75 72 72 77 80 82 84 88
66 74 75 66 66 71 91 90 84 74 76 78 79 84 81 80 75 65 68 71 79 78 79 80 90 91 95
82 70 62 64 69 73 91 96 92 88 70 84 92 89 87 65 64 79 77 80 78 83 78 81 80 85 97
68 65 72 77 80 84 90 98 96 92 84 92 94 92 94 90 78 77 78 80 82 87 89 86 88 93 100
72 77 81 84 87 92 94 94 95 98 96 100 97 97 94 90 85 74 77 84 89 92 93 99 100 98 98
85 87 89 91 93 98 91 97 93 94 96 97 100 98 98 94 92 89 82 86 92 97 98 99 99 100 99
94 94 95 94 93 94 98 97 98 90 85 88 93 99 97 96 96 93 89 95 94 100 100 99 98 100 100
96 97 95 94 93 94 96 96 96 91 88 86 86 90 97 98 96 90 92 91 87 97 98 97 91 96 100
98 98 97 96 96 95 94 96 95 92 91 88 93 93 83 77 74 90 90 93 91 96 96 98 88 90 100
99 98 98 97 93 95 93 94 90 90 88 91 92 94 94 89 70 73 90 96 98 96 87 97 98 97 100

GFSFLT2_925_rhum_054.txt.gz
RH
55 57 58 58 58 56 58 64 71 59 55 58 58 60 63 66 66 66 70 75 74 74 80 79 83 84 79
63 63 64 60 61 67 79 66 60 58 56 58 61 63 66 68 65 68 70 68 69 71 72 72 76 75 78
73 69 69 74 81 79 68 60 57 58 60 60 64 71 68 67 66 65 68 69 67 69 70 70 70 70 73
76 84 87 87 81 72 65 62 64 69 71 78 72 69 68 67 73 73 72 72 69 68 70 73 76 78 78
91 80 79 81 77 64 67 66 74 80 86 74 73 76 79 78 76 72 73 72 70 72 76 77 78 81 82
87 91 88 64 65 69 74 83 88 76 78 81 78 80 79 76 74 71 73 74 72 75 78 81 84 81 80
79 68 66 67 72 85 95 97 89 84 87 86 77 77 76 75 76 77 76 81 81 80 77 78 81 83 86
69 67 69 74 90 92 85 83 88 83 79 89 79 79 80 82 80 80 80 81 73 76 82 83 84 83 80
71 76 77 74 70 73 87 92 86 78 79 82 81 91 87 85 70 70 72 74 83 83 84 84 86 84 85
84 74 70 68 75 80 88 97 94 88 70 89 91 92 86 69 67 76 75 82 82 84 84 89 92 90 100
70 71 74 79 83 85 90 98 96 93 84 94 94 93 94 91 79 78 80 77 83 85 90 93 92 92 100
74 82 89 92 92 94 96 99 98 99 97 100 97 98 95 90 86 75 79 84 89 90 92 90 96 97 96
93 94 94 94 98 100 95 97 97 95 95 95 98 98 99 94 92 90 83 86 90 95 89 98 100 96 99
92 96 99 99 98 98 99 97 98 92 86 87 91 98 97 96 97 93 90 94 90 92 100 100 94 94 99
99 98 97 98 97 96 98 98 96 92 90 87 86 89 96 100 96 90 92 94 92 92 98 95 91 91 98
99 99 98 98 97 97 97 97 96 92 93 89 92 96 87 79 74 93 94 94 92 91 97 98 91 84 90
100 99 99 98 95 98 96 96 93 90 89 92 97 96 94 90 70 72 93 95 94 95 90 93 96 91 95

GFSFLT2_925_rhum_057.txt.gz
RH
61 64 64 63 65 65 68 72 72 70 64 63 62 64 64 66 67 73 75 75 79 79 79 81 83 80 77
70 70 73 72 74 77 79 84 74 68 65 63 66 68 70 72 74 70 70 71 72 70 68 66 73 80 85
75 75 78 82 86 85 90 79 70 66 63 66 72 78 77 73 72 73 75 74 75 73 71 72 73 76 77
80 85 84 73 77 89 80 68 68 68 72 79 80 76 74 76 78 80 81 79 77 77 79 82 84 80 79
89 81 78 79 81 72 73 73 72 78 78 80 78 81 83 81 80 80 81 77 75 78 82 84 83 84 85
84 82 80 76 74 75 78 82 85 75 82 85 82 83 81 80 79 78 78 81 81 81 84 83 87 84 85
83 84 82 76 74 86 97 99 91 88 88 87 80 81 79 78 78 82 84 84 83 81 82 80 82 83 83
80 76 76 87 97 90 87 89 88 84 80 87 79 80 80 82 83 84 84 82 79 78 82 86 87 88 88
74 80 80 76 75 78 88 92 87 80 80 84 82 88 87 85 67 69 75 75 80 84 87 86 90 90 92
81 69 67 68 80 82 86 96 94 89 70 86 92 94 87 69 68 75 73 82 85 84 85 88 90 92 98
67 72 76 82 88 91 94 100 97 94 85 94 94 94 95 90 82 80 80 74 81 86 89 92 96 96 100
82 87 92 95 92 96 94 97 99 100 98 100 97 98 95 90 87 75 79 84 90 90 92 92 95 97 94
95 94 95 99 99 100 97 92 94 92 92 90 98 100 100 95 92 90 86 85 89 93 86 97 97 97 100
98 98 100 100 100 100 100 100 100 94 85 90 90 92 98 98 98 92 88 91 88 94 95 94 91 96 97
100 99 99 99 98 98 100 100 98 92 92 89 89 93 96 100 98 93 93 93 91 94 96 96 90 90 92
100 100 99 98 99 98 98 98 97 93 94 93 95 96 88 82 86 96 90 86 88 92 93 97 92 85 84
100 100 99 98 95 96 96 97 94 92 92 94 98 96 94 90 70 72 90 95 92 94 91 94 95 88 88

GFSFLT2_925_rhum_060.txt.gz
RH
58 58 63 64 68 68 69 68 70 78 79 74 72 70 69 69 70 72 74 80 78 78 76 81 76 76 79
68 68 71 70 75 77 74 76 82 82 78 72 70 71 73 74 74 76 72 72 76 73 69 69 76 81 81
74 73 73 76 77 77 79 84 76 76 69 71 71 78 80 76 75 75 76 76 75 75 74 77 79 81 80
76 79 81 81 77 81 79 73 75 75 75 79 81 80 76 78 81 82 83 82 81 78 77 80 86 82 80
84 90 92 80 80 80 81 80 79 82 78 80 84 83 82 84 83 82 85 83 80 79 78 83 84 88 86
91 89 85 84 82 86 85 87 87 76 85 87 83 84 84 81 84 82 80 81 81 88 84 86 88 89 89
82 86 88 84 82 90 96 99 91 88 91 87 81 83 80 78 77 82 84 85 83 82 83 84 86 87 82
80 78 78 90 98 96 88 89 90 86 81 86 79 82 81 80 80 84 85 84 81 78 78 81 85 87 88
76 82 83 77 73 79 90 94 88 82 80 86 84 84 84 86 69 63 79 76 77 81 84 88 87 88 89
79 67 63 67 82 84 89 97 95 90 69 84 90 94 85 69 68 68 77 78 86 84 82 85 89 90 91
67 74 76 81 88 91 95 100 98 94 85 96 94 95 94 91 82 81 82 77 79 82 89 91 94 96 98
88 91 95 94 89 92 92 98 100 100 98 100 96 99 95 91 86 77 80 85 90 92 94 95 96 94 94
100 98 99 98 94 100 100 99 99 87 83 90 100 98 100 94 92 90 88 84 88 90 89 91 98 97 99
100 100 99 100 100 99 100 100 100 95 81 88 94 96 98 98 98 93 89 91 87 93 97 98 96 99 96
100 100 100 100 100 98 100 100 99 94 93 87 88 92 97 100 99 95 94 92 93 96 97 96 92 91 90
100 100 100 100 99 99 98 99 97 94 95 94 96 98 91 86 92 100 96 95 90 91 95 97 92 88 89
100 100 100 99 97 100 98 97 94 93 93 93 99 96 94 91 70 72 89 96 95 93 92 94 95 90 89

GFSFLT2_925_rhum_063.txt.gz
RH
53 53 58 62 63 65 64 59 65 77 80 81 80 77 73 72 73 74 76 80 78 79 79 80 80 79 78
62 62 65 64 68 70 67 68 74 72 81 81 76 76 77 77 76 75 85 83 79 79 76 75 72 69 68
75 71 72 71 74 79 78 80 76 75 74 76 77 80 82 79 75 73 76 76 76 75 76 75 72 72 78
76 79 79 80 86 88 83 79 81 77 79 83 83 84 80 77 82 84 85 85 82 79 79 77 77 81 86
84 85 90 88 87 84 88 87 88 83 74 78 77 82 82 85 82 83 87 89 85 79 79 82 85 86 87
82 95 91 83 84 90 91 94 87 76 80 86 85 86 76 76 79 86 84 82 82 80 82 83 87 85 90
86 84 86 83 82 93 98 100 94 87 90 90 85 85 68 77 78 82 83 85 85 84 78 81 86 85 88
80 78 77 86 95 89 87 86 90 89 82 86 77 81 79 78 79 81 86 87 86 82 79 76 77 77 80
78 84 85 78 76 83 93 96 88 82 81 85 84 83 84 83 69 58 81 81 76 77 81 82 85 82 86
81 70 63 67 81 86 90 99 95 89 70 85 89 94 87 66 69 66 71 74 85 87 85 83 83 84 87
70 73 74 77 85 89 94 100 99 95 86 96 94 96 96 92 83 81 81 80 77 82 88 90 91 92 91
89 92 94 93 88 88 89 92 99 100 91 100 96 98 95 91 86 77 79 84 88 91 89 93 97 96 91
100 99 99 96 91 88 88 93 95 92 88 86 98 98 99 94 92 90 90 84 88 93 92 95 96 96 99
99 100 100 97 98 96 100 98 100 95 82 87 94 97 98 98 99 93 91 94 87 94 96 98 98 100 100
100 100 100 100 100 96 99 100 99 95 94 87 85 91 97 100 98 95 96 97 95 97 97 96 93 94 96
100 100 100 100 100 99 99 100 98 95 96 94 96 98 91 84 94 100 99 98 97 97 96 97 92 86 88
100 99 99 99 99 100 99 99 95 94 93 93 98 97 94 90 70 72 94 96 96 95 93 93 93 88 89

GFSFLT2_925_rhum_066.txt.gz
RH
53 47 53 56 59 63 67 70 64 65 77 78 79 76 75 73 74 74 80 80 84 80 85 82 82 76 79
60 60 62 62 66 71 73 69 68 63 83 81 79 79 80 78 78 79 84 89 88 84 80 77 78 80 76
73 71 70 71 76 81 78 77 76 72 75 82 82 84 85 80 77 76 77 76 76 76 76 76 74 72 71
72 77 80 80 84 89 90 81 83 79 66 78 84 80 80 78 82 85 85 85 84 81 78 78 78 79 76
83 88 88 82 90 84 90 90 92 85 75 77 75 81 78 80 78 81 86 89 87 82 81 84 88 83 84
86 96 92 86 86 88 91 96 87 79 80 88 83 84 75 74 79 86 85 84 83 81 82 84 86 84 85
85 84 88 83 82 95 99 100 93 87 90 90 85 87 76 69 78 82 82 85 84 83 83 80 82 85 86
82 79 80 87 92 88 85 89 93 90 86 91 79 80 77 75 79 82 81 84 85 82 77 78 82 87 82
81 88 87 81 82 90 93 99 91 85 85 88 86 82 84 82 65 58 77 77 75 76 79 82 82 80 87
84 70 63 67 72 84 93 100 97 90 72 87 88 94 91 64 66 67 73 71 82 85 85 84 84 82 87
71 71 70 74 76 80 87 100 100 96 87 96 94 96 96 92 84 81 80 77 74 80 86 89 91 90 91
86 87 90 87 81 86 85 86 95 100 88 100 97 99 96 91 86 78 79 85 89 91 90 88 93 95 93
97 96 94 91 88 84 82 85 86 84 82 85 98 100 100 95 92 92 92 84 88 93 88 87 85 93 99
96 96 94 94 93 93 98 94 100 85 84 85 89 95 98 99 100 94 90 94 85 90 97 100 100 98 100
99 100 98 97 96 95 99 100 100 96 95 82 86 94 98 100 96 93 95 96 95 98 100 98 95 95 98
99 100 100 100 100 99 99 100 100 96 97 94 96 98 90 84 91 100 98 99 97 98 99 98 92 88 90
100 100 100 98 100 100 100 100 97 94 93 95 98 97 93 89 70 75 98 97 98 97 95 96 95 90 91

GFSFLT2_925_rhum_069.txt.gz
RH
48 44 46 49 56 63 66 73 74 76 76 78 83 79 77 76 75 74 74 78 82 84 84 84 84 82 81
60 61 62 59 68 72 76 73 73 71 80 86 82 83 83 81 78 82 84 86 85 82 80 80 80 80 80
70 74 75 75 77 80 85 87 83 80 80 81 83 86 87 82 79 77 78 77 78 78 76 74 76 76 74
75 80 82 81 88 87 73 69 73 78 80 82 85 82 81 82 84 87 86 86 85 83 81 78 77 76 80
83 80 83 79 75 73 75 75 78 79 76 75 73 75 76 78 79 83 86 90 88 83 82 85 88 91 92
90 85 76 75 75 77 82 84 79 71 76 78 76 76 74 75 76 82 84 83 85 81 82 85 90 89 86
81 77 77 74 83 98 91 90 88 83 83 82 75 75 73 73 77 80 83 85 86 84 81 79 83 91 88
80 79 84 89 89 89 87 90 86 80 78 80 70 70 72 73 77 82 82 82 81 80 78 76 80 83 84
86 90 90 84 85 90 93 90 90 76 77 78 74 75 77 79 72 62 77 76 75 77 80 82 82 80 83
85 67 63 66 71 90 98 100 97 85 72 89 80 84 79 67 71 73 76 76 81 84 85 84 86 88 88
74 78 80 84 86 92 98 100 100 97 87 96 93 93 94 87 79 77 79 79 79 80 83 88 91 92 94
88 90 93 94 80 80 80 84 95 99 86 99 98 99 96 91 84 77 80 85 89 91 90 93 95 95 93
96 97 100 89 82 81 83 83 87 85 82 85 95 100 100 95 92 91 92 86 90 94 98 97 95 95 98
100 100 97 97 97 95 100 95 100 87 86 84 89 95 99 100 100 95 92 94 87 93 96 97 98 99 100
100 100 100 100 98 98 100 100 100 98 96 86 92 98 100 100 100 95 94 95 93 95 99 98 95 96 96
100 100 100 100 100 100 100 100 100 99 97 94 96 99 89 85 88 100 98 97 96 98 100 98 92 89 91
99 100 100 100 100 100 100 100 98 96 94 97 98 96 93 88 70 77 99 95 96 94 94 94 95 92 92

GFSFLT2_925_rhum_072.txt.gz
RH
99 80 66 62 57 55 56 59 58 62 67 72 80 83 82 81 80 79 76 74 73 78 80 79 78 77 79
68 56 57 64 69 71 64 64 63 66 72 82 86 84 85 85 84 81 79 76 75 73 73 74 71 72 72
70 72 72 71 75 68 67 66 62 59 63 70 75 80 83 86 83 82 82 81 80 80 79 76 74 72 73
70 68 71 65 70 67 58 55 55 61 66 70 72 74 75 76 79 82 85 85 86 84 83 81 78 79 77
72 65 66 60 58 56 57 59 64 67 65 62 60 62 64 64 67 69 72 79 84 84 81 79 76 82 83
81 71 60 58 56 58 69 74 75 69 64 68 64 63 62 62 63 71 78 82 84 84 81 82 87 89 87
72 64 60 57 78 87 81 87 86 74 71 69 64 63 59 58 62 68 75 82 84 85 83 80 77 83 86
68 63 65 71 77 80 77 78 76 68 67 70 64 63 61 62 66 71 75 77 79 82 82 79 77 77 79
80 88 90 88 84 83 84 80 80 74 71 70 65 67 71 75 70 66 72 75 78 80 81 83 84 81 81
70 65 65 69 82 85 88 94 95 84 65 85 79 80 82 69 70 72 74 72 76 78 82 84 85 85 88
64 66 70 74 78 82 90 99 99 96 87 94 93 91 92 88 78 76 77 80 76 77 78 83 86 89 92
74 78 83 90 96 100 98 100 100 100 85 100 100 99 98 92 85 77 79 83 89 93 88 84 86 88 90
84 87 94 100 98 100 100 100 100 100 95 90 100 100 100 97 93 90 90 88 92 96 97 94 92 92 93
90 95 99 100 100 100 100 100 100 98 91 93 98 100 100 100 99 94 93 95 90 95 96 98 97 97 97
100 100 99 100 100 100 100 99 98 96 97 94 97 98 98 98 100 96 96 96 95 96 98 97 93 94 98
100 100 100 100 100 100 98 97 94 94 95 94 94 95 90 88 92 99 96 96 94 96 100 99 94 91 93
100 100 100 100 100 98 97 97 91 90 91 93 97 94 93 90 72 74 90 96 95 94 94 93 94 91 91

GFSFLT2_925_rhum_075.txt.gz
RH
83 94 94 80 49 56 59 57 58 60 62 68 74 77 83 84 82 81 80 78 76 74 70 75 78 80 81
92 72 60 63 66 69 58 68 60 62 66 65 71 75 80 82 82 82 83 81 80 78 77 74 70 72 68
71 72 71 66 65 68 67 66 64 56 53 57 65 72 78 82 83 85 85 85 85 84 83 80 78 76 73
72 71 72 72 67 66 62 55 53 55 61 67 69 67 67 67 70 73 74 77 80 82 81 80 80 79 78
81 75 71 65 59 56 56 56 64 69 69 68 62 66 66 65 64 65 67 72 77 80 78 77 77 81 79
86 78 70 58 56 56 70 78 81 74 74 76 72 68 65 64 63 64 67 70 75 80 81 79 77 79 77
79 71 65 59 63 70 85 88 88 83 76 75 71 69 66 63 63 66 70 73 78 80 81 81 80 78 76
73 70 64 63 72 78 79 79 78 77 72 74 71 71 68 67 69 72 77 78 77 80 83 83 82 80 78
65 78 86 88 86 86 88 88 86 84 84 81 73 74 78 77 69 74 72 71 74 81 80 81 80 82 82
71 69 63 64 70 78 84 90 90 92 69 89 88 89 88 68 72 70 74 77 79 78 82 80 80 80 83
64 63 68 72 76 80 84 90 94 94 92 97 97 96 94 92 83 83 80 79 85 86 86 88 89 86 84
71 78 83 90 96 99 100 100 100 99 97 100 99 100 98 93 90 83 85 91 91 96 93 93 92 94 90
86 87 92 98 100 100 99 99 99 99 100 96 100 100 100 98 95 96 94 91 94 91 89 97 97 94 99
88 94 99 99 99 100 100 100 100 98 97 97 99 96 98 100 100 95 94 97 92 97 99 99 99 100 100
96 98 99 99 100 100 99 95 99 91 91 94 96 97 98 98 99 96 95 94 94 95 99 99 98 96 97
100 100 100 100 100 100 95 98 94 89 92 88 88 95 94 90 85 99 99 100 98 96 97 99 94 90 91
100 100 100 100 100 99 100 99 93 88 90 91 96 97 94 90 73 73 92 97 95 94 94 96 97 93 95

GFSFLT2_925_rhum_078.txt.gz
RH
96 90 85 82 89 64 57 57 56 60 65 68 71 75 76 80 83 82 82 81 79 76 75 74 76 77 80
93 93 74 58 60 58 54 62 64 64 67 68 64 64 72 77 81 83 84 83 80 79 81 80 78 75 73
71 66 65 64 63 65 65 65 63 61 56 57 64 72 76 78 77 77 77 78 77 77 79 79 76 77 74
76 72 71 70 70 68 68 58 55 55 58 66 74 74 73 73 73 75 74 73 74 75 76 77 76 75 78
78 82 78 66 66 59 56 60 56 54 70 69 66 62 59 58 66 70 73 72 73 75 76 74 77 77 76
85 82 79 66 60 61 65 65 81 72 74 80 73 72 68 67 70 73 72 73 75 76 75 77 77 77 75
85 83 76 66 63 62 74 81 88 83 83 80 77 79 61 63 70 75 75 79 82 84 82 80 80 80 82
75 74 70 64 69 79 83 87 81 78 85 86 74 70 65 70 68 75 82 84 78 79 80 81 80 81 83
65 77 83 86 85 84 83 82 94 84 84 90 82 82 77 67 64 68 76 78 83 88 86 85 84 82 82
74 68 62 62 69 72 74 80 86 92 82 83 84 96 93 71 74 77 71 72 85 89 91 89 87 90 89
67 65 70 76 81 85 89 89 91 96 90 97 98 97 97 92 86 86 83 80 83 85 83 93 99 96 97
74 83 88 90 97 99 98 100 100 100 99 100 98 98 97 94 89 83 88 92 88 87 84 84 92 93 90
88 88 95 99 100 100 100 100 99 97 99 100 96 92 100 97 95 94 89 87 91 84 88 98 93 92 99
91 95 99 99 99 98 100 100 96 93 88 87 93 97 99 100 100 97 96 98 96 100 100 100 100 99 99
95 98 98 97 97 100 99 92 100 96 93 91 90 90 91 94 100 98 96 98 94 97 100 99 96 94 97
100 99 97 96 96 97 95 96 100 96 96 88 90 99 94 88 87 100 99 95 90 97 100 99 96 90 89
98 97 96 94 95 97 98 100 100 95 94 94 100 98 94 91 74 73 79 88 94 98 98 97 96 92 91

GFSFLT2_925_rhum_081.txt.gz
RH
99 98 96 98 85 83 83 68 51 49 68 70 72 74 74 74 76 81 82 81 79 77 82 83 85 84 82
96 95 89 81 63 57 54 56 59 61 72 72 65 64 69 75 79 81 79 80 80 80 79 81 82 83 81
76 69 64 61 64 64 64 66 67 63 60 59 66 72 80 80 79 79 79 81 80 78 77 75 77 77 76
76 76 81 81 73 70 68 60 56 55 45 58 74 71 77 76 80 79 79 78 78 78 77 77 74 76 75
86 85 80 70 70 62 60 60 56 56 65 66 58 57 55 60 61 62 83 80 78 77 76 74 74 81 80
83 84 82 72 66 64 63 71 84 74 80 74 68 60 59 60 62 80 80 82 80 80 83 81 83 80 83
86 87 85 73 69 67 73 82 87 83 78 80 71 63 61 62 61 85 88 88 88 86 82 80 80 81 82
72 68 66 72 78 84 88 89 82 75 82 90 76 71 70 60 59 60 82 82 85 88 89 89 88 88 88
69 80 82 79 78 76 75 76 84 84 82 90 83 82 76 64 64 66 82 75 89 94 92 93 92 91 90
72 67 64 67 71 73 79 82 80 84 83 96 95 95 91 78 80 82 79 74 80 90 96 97 97 91 88
69 72 80 86 88 90 94 96 96 91 91 99 97 97 96 92 84 83 82 75 77 77 77 76 85 99 93
82 86 88 94 97 99 99 98 99 98 96 97 99 99 99 94 90 81 82 82 85 85 82 79 86 92 98
85 88 96 100 99 100 99 97 96 93 88 86 91 95 100 98 97 97 91 90 94 90 95 100 99 100 100
91 97 98 99 96 95 96 95 95 86 82 86 84 87 95 100 100 98 95 98 91 97 100 98 99 97 96
95 98 98 96 93 94 94 92 100 100 94 81 77 84 90 93 100 99 98 94 95 96 99 99 96 97 97
100 98 95 94 93 94 92 94 100 100 97 86 86 97 95 87 87 100 95 92 86 92 96 100 96 91 92
100 99 95 93 98 93 93 97 100 99 95 91 96 100 96 92 76 76 81 89 92 97 98 99 96 94 97

GFSFLT2_925_rhum_084.txt.gz
RH
100 100 100 99 98 91 85 82 73 61 77 76 75 76 76 73 73 76 79 78 76 79 83 85 86 88 87
99 96 94 94 85 68 55 55 61 65 77 77 74 69 70 74 78 81 80 83 83 84 83 82 84 84 85
93 88 69 60 59 64 67 66 68 68 61 57 61 68 78 85 87 87 85 84 84 82 80 78 77 76 75
70 74 67 77 78 75 70 63 58 56 45 51 65 68 65 80 87 83 78 83 84 83 81 79 76 75 75
83 85 84 75 72 66 64 63 54 51 65 54 51 50 55 59 57 56 68 88 84 83 81 77 77 80 82
86 86 82 78 72 69 66 74 86 68 73 56 56 52 58 57 57 83 87 90 88 85 85 79 82 84 82
86 87 86 80 73 72 67 78 87 75 78 75 61 61 62 59 61 86 96 92 88 86 88 90 87 85 85
76 68 65 71 80 87 89 91 85 73 78 89 72 72 70 62 63 74 89 89 94 93 95 92 91 90 89
77 81 84 84 81 78 82 78 79 81 83 93 81 85 78 67 64 62 66 80 89 94 93 93 95 94 95
63 70 66 68 75 75 80 87 95 86 87 97 95 90 86 77 73 72 70 69 74 90 91 98 99 97 94
69 72 78 85 88 92 97 98 95 92 85 97 99 98 94 86 84 82 79 74 77 77 80 82 77 100 98
80 84 86 91 96 99 100 99 100 96 95 97 95 92 100 98 91 80 88 85 90 89 84 82 86 92 99
84 89 94 99 99 98 98 98 97 99 98 85 90 91 100 100 98 98 98 96 94 88 90 93 88 88 94
89 93 99 100 100 98 98 97 96 91 81 79 79 86 95 100 100 98 98 99 94 89 88 91 96 98 99
94 94 99 97 95 95 95 94 95 100 97 76 74 79 89 96 100 100 98 100 98 87 90 95 90 93 92
97 98 97 96 92 94 93 95 100 100 96 85 85 95 96 90 84 100 100 94 83 84 93 100 98 96 92
100 99 96 92 98 92 94 96 96 95 91 88 94 100 96 92 80 79 81 82 93 100 100 99 98 93 94